Time,TemperatureF,DewpointF,PressureIn,WindDirection,WindDirectionDegrees,WindSpeedMPH,WindSpeedGustMPH,Humidity,HourlyPrecipIn,Conditions,Clouds,dailyrainin,SoftwareType,DateUTC
2013-08-25 00:12:00,69.0,67.0,30.15,SE,145,0.0,-999.0,92,-99.99,,,-99.99,,2013-08-25 05:12:00,
2013-08-25 00:23:00,68.0,66.0,30.15,SE,145,0.0,-999.0,92,-99.99,,,-99.99,,2013-08-25 05:23:00,
2013-08-25 00:42:00,68.0,66.0,30.15,SE,145,0.0,-999.0,92,-99.99,,,-99.99,,2013-08-25 05:42:00,
2013-08-25 00:52:00,68.0,66.0,30.15,SE,145,0.0,-999.0,92,-99.99,,,-99.99,,2013-08-25 05:52:00,
2013-08-25 01:03:00,68.0,66.0,30.15,SE,145,0.0,-999.0,92,-99.99,,,-99.99,,2013-08-25 06:03:00,
2013-08-25 13:22:00,84.0,73.0,30.16,West,269,2.0,-999.0,69,-99.99,,,-99.99,,2013-08-25 18:22:00,
2013-08-25 13:43:00,85.0,73.0,30.16,SSW,197,1.0,-999.0,68,-99.99,,,-99.99,,2013-08-25 18:43:00,
2013-08-25 13:52:00,85.0,73.0,30.16,SSW,213,1.0,-999.0,68,-99.99,,,-99.99,,2013-08-25 18:52:00,
2013-08-25 14:11:00,85.0,72.0,30.16,SSW,194,2.0,-999.0,66,-99.99,,,-99.99,,2013-08-25 19:11:00,
2013-08-25 14:22:00,86.0,73.0,30.15,South,171,1.0,-999.0,65,-99.99,,,-99.99,,2013-08-25 19:22:00,
2013-08-25 14:42:00,86.0,72.0,30.15,SE,136,1.0,-999.0,63,-99.99,,,-99.99,,2013-08-25 19:42:00,
2013-08-25 14:53:00,87.0,73.0,30.14,South,172,1.0,-999.0,63,-99.99,,,-99.99,,2013-08-25 19:53:00,
2013-08-25 15:12:00,87.0,72.0,30.14,South,189,1.0,-999.0,61,-99.99,,,-99.99,,2013-08-25 20:12:00,
2013-08-25 15:23:00,87.0,73.0,30.14,South,183,1.0,-999.0,63,-99.99,,,-99.99,,2013-08-25 20:23:00,
2013-08-25 15:43:00,87.0,72.0,30.14,SSE,161,1.0,-999.0,62,-99.99,,,-99.99,,2013-08-25 20:43:00,
2013-08-25 15:53:00,87.0,72.0,30.14,SE,143,1.0,-999.0,61,-99.99,,,-99.99,,2013-08-25 20:53:00,
2013-08-25 16:12:00,87.0,73.0,30.13,SSW,200,1.0,-999.0,63,-99.99,,,-99.99,,2013-08-25 21:12:00,
2013-08-25 16:22:00,87.0,72.0,30.13,South,181,1.0,-999.0,61,-99.99,,,-99.99,,2013-08-25 21:22:00,
2013-08-25 16:43:00,87.0,71.0,30.12,SSW,202,1.0,-999.0,60,-99.99,,,-99.99,,2013-08-25 21:43:00,
2013-08-25 16:54:00,87.0,72.0,30.12,WSW,240,1.0,-999.0,62,-99.99,,,-99.99,,2013-08-25 21:54:00,
2013-08-25 17:14:00,87.0,71.0,30.12,ESE,104,0.0,-999.0,59,-99.99,,,-99.99,,2013-08-25 22:14:00,
2013-08-25 17:24:00,87.0,73.0,30.11,SE,136,1.0,-999.0,63,-99.99,,,-99.99,,2013-08-25 22:24:00,
2013-08-25 17:43:00,87.0,72.0,30.11,South,187,1.0,-999.0,62,-99.99,,,-99.99,,2013-08-25 22:43:00,
2013-08-25 17:53:00,87.0,72.0,30.11,SSW,202,0.0,-999.0,61,-99.99,,,-99.99,,2013-08-25 22:53:00,
2013-08-25 18:12:00,87.0,72.0,30.11,South,188,0.0,-999.0,61,-99.99,,,-99.99,,2013-08-25 23:12:00,
2013-08-25 18:23:00,87.0,72.0,30.11,South,188,0.0,-999.0,62,-99.99,,,-99.99,,2013-08-25 23:23:00,
2013-08-25 18:42:00,86.0,71.0,30.11,SE,136,0.0,-999.0,61,-99.99,,,-99.99,,2013-08-25 23:42:00,
2013-08-25 18:53:00,86.0,71.0,30.10,SSE,161,0.0,-999.0,62,-99.99,,,-99.99,,2013-08-25 23:53:00,
2013-08-25 19:11:00,85.0,71.0,30.10,SSE,163,0.0,-999.0,63,-99.99,,,-99.99,,2013-08-26 00:11:00,
2013-08-25 19:22:00,84.0,71.0,30.10,SSE,163,0.0,-999.0,65,-99.99,,,-99.99,,2013-08-26 00:22:00,
2013-08-25 19:42:00,83.0,71.0,30.10,SSE,163,0.0,-999.0,68,-99.99,,,-99.99,,2013-08-26 00:42:00,
2013-08-25 19:52:00,81.0,71.0,30.10,SSE,163,0.0,-999.0,71,-99.99,,,-99.99,,2013-08-26 00:52:00,
2013-08-25 20:11:00,80.0,71.0,30.10,SSE,163,0.0,-999.0,75,-99.99,,,-99.99,,2013-08-26 01:11:00,
2013-08-25 20:22:00,78.0,70.0,30.10,SSE,163,0.0,-999.0,77,-99.99,,,-99.99,,2013-08-26 01:22:00,
2013-08-25 20:42:00,77.0,70.0,30.10,SSE,163,0.0,-999.0,80,-99.99,,,-99.99,,2013-08-26 01:42:00,
2013-08-25 20:52:00,76.0,70.0,30.10,SSE,163,0.0,-999.0,81,-99.99,,,-99.99,,2013-08-26 01:52:00,
2013-08-25 21:11:00,75.0,69.0,30.11,SSE,163,0.0,-999.0,82,-99.99,,,-99.99,,2013-08-26 02:11:00,
2013-08-25 21:22:00,74.0,68.0,30.11,SSE,163,0.0,-999.0,83,-99.99,,,-99.99,,2013-08-26 02:22:00,
2013-08-25 21:42:00,74.0,68.0,30.12,SSE,163,0.0,-999.0,83,-99.99,,,-99.99,,2013-08-26 02:42:00,
2013-08-25 21:52:00,73.0,68.0,30.12,SSE,163,0.0,-999.0,84,-99.99,,,-99.99,,2013-08-26 02:52:00,
2013-08-25 22:11:00,73.0,68.0,30.12,SSE,163,0.0,-999.0,85,-99.99,,,-99.99,,2013-08-26 03:11:00,
2013-08-25 22:22:00,72.0,68.0,30.12,SSE,163,0.0,-999.0,87,-99.99,,,-99.99,,2013-08-26 03:22:00,
2013-08-25 22:44:00,71.0,67.0,30.12,SSE,163,0.0,-999.0,88,-99.99,,,-99.99,,2013-08-26 03:44:00,
2013-08-25 22:56:00,71.0,67.0,30.12,SSE,164,0.0,-999.0,88,-99.99,,,-99.99,,2013-08-26 03:56:00,
2013-08-25 23:14:00,71.0,67.0,30.12,SSE,164,0.0,-999.0,87,-99.99,,,-99.99,,2013-08-26 04:14:00,
2013-08-25 23:53:00,69.0,66.0,30.12,SSE,164,0.0,-999.0,90,-99.99,,,-99.99,,2013-08-26 04:53:00,